Preview of NWS' New Version of Forecast
This preview is not operational and should not be used for support decisions.

Regional Weather Roundup (RWR)

Issued by Philadelphia/Mt Holly (PHI)

                            
000
ASUS41 KPHI 221412
RWRPHI

REGIONAL WEATHER ROUNDUP
NATIONAL WEATHER SERVICE MOUNT HOLLY NJ
1000 AM EDT FRI MAR 22 2019

NOTE:  "FAIR" INDICATES FEW OR NO CLOUDS BELOW 12,000 FEET WITH NO
SIGNIFICANT WEATHER AND/OR OBSTRUCTIONS TO VISIBILITY.

 * = STATION DOES NOT REPORT PRECIPITATION (E.G. RAIN, SNOW, ETC.) 
        OR FOG.

NJZ015>026-221500-
SOUTHERN NEW JERSEY
  
CITY           SKY/WX    TMP DP  RH WIND       PRES   REMARKS
POMONA         LGT RAIN  42  41  96 NW24G37   29.42R                  
WILDWOOD*      CLOUDY    45  39  79 W18G33    29.48R                  
MILLVILLE      CLOUDY    44  39  82 NW17G31   29.47R                  
MOUNT HOLLY    CLOUDY    42  38  85 NW10G21   29.44R                  
TRENTON        LGT RAIN  40  37  89 NW15G24   29.42R WCI  32          

$$
NJZ001>014-221500-
NORTHERN NEW JERSEY
  
CITY           SKY/WX    TMP DP  RH WIND       PRES   REMARKS
SUSSEX         LGT RAIN  39  36  89 NW10G18   29.39S WCI  32          
ANDOVER*         N/A     37  34  89 N10G21    29.40S WCI  30          
MORRISTOWN     DRIZZLE   39  37  93 NW15G28   29.38S WCI  31          
NEWARK         CLOUDY    44  38  79 NW13G23   29.35S                  
TETERBORO      LGT RAIN  42  37  82 N14G21    29.34S                  
CALDWELL       CLOUDY    42  38  85 NW10G18   29.37S                  
SOMERVILLE     LGT RAIN  42  37  82 NW15G25   29.39S                  
ALLAIRE*       LGT RAIN  40  38  93 W18G26    29.36R WCI  31          
TOMS RIVER*    LGT RAIN  39  39 100 NW18G25   29.39R FOG     WCI  30  

$$
PAZ043-044-047-054-055-060>062-066>071-221500-
EASTERN PENNSYLVANIA
  
CITY           SKY/WX    TMP DP  RH WIND       PRES   REMARKS
PHILADELPHIA   LGT RAIN  44  38  79 NW26G35   29.48R                  
NORTH PHILA    CLOUDY    44  38  79 NW17      29.45S                  
BLUE BELL*     CLOUDY    39  36  87 NW9G26    29.48R WCI  33          
DOYLESTOWN     LGT RAIN  41  37  86 NW15G25   29.43S                  
QUAKERTOWN*    CLOUDY    39  37  93 W14G21    29.47R FOG     WCI  31  
PERKASIE*      RAIN      39  39 100 NW15G29   29.46S WCI  31          
POTTSTOWN      LGT RAIN  40  35  83 W14G29    29.50R WCI  32          
LANCASTER      PTSUNNY   45  33  63 NW25G37   29.55R                  
COATESVILLE    CLOUDY    39  34  81 NW28G38   29.52R WCI  28          
READING        PTSUNNY   43  34  70 NW25G31   29.51R                  
ALLENTOWN      LGT RAIN  43  34  70 W18G25    29.47R                  
MOUNT POCONO   FLURRIES  33  32  96 NW21G35   29.38S WCI  21          
HAZLETON       CLOUDY    36  30  80 NW13G26   29.50S WCI  27          
LEHIGHTON      LGT RAIN  41  34  75 W9G20     29.50R                  
WILKES BARRE   LGT RAIN  36  34  92 N12G17    29.48S FOG     WCI  28  

$$
DEZALL-MDZ008-012-015-019-020-221500-
DELAWARE AND EASTERN MARYLAND
  
CITY           SKY/WX    TMP DP  RH WIND       PRES   REMARKS
WILMINGTON     CLOUDY    43  35  73 NW24G40   29.52R                  
GEORGETOWN     CLOUDY    49  36  61 NW16G26   29.55R                  
EASTON         PTSUNNY   46  36  66 W22G30    29.63R                  
PATUXENT       FAIR      49  32  52 NW31G53   29.61                   
OCEAN CITY     PTSUNNY   48  37  65 NW20G39   29.54R                  
WALLOPS ISLAND PTSUNNY   50  35  56 NW24G40   29.59R                  
CAMBRIDGE      CLOUDY    46  34  61 NW15G32   29.61R                  
SALISBURY      PTSUNNY   48  36  63 NW28G36   29.56R                  

$$
PAZ001-021-NYZ056-072-MDZ011-DCZ001-221500-
OTHER NEARBY LOCATIONS
  
CITY           SKY/WX    TMP DP  RH WIND       PRES   REMARKS
HARRISBURG     CLOUDY    43  31  62 NW21G31   29.58S                  
STATE COLLEGE  CLOUDY    36  30  80 NW13      29.61S WCI  27          
WILLIAMSPORT   CLOUDY    40  30  67 W10       29.56F WCI  33          
BINGHAMTON     CLOUDY    33  30  88 NW14G25   29.46F WCI  23          
NEW YORK CITY  LGT RAIN  41  38  89 VRB3      29.37                   
BALTIMORE      PTSUNNY   45  32  60 NW20G36   29.61R                  
WASHINGTON DC  PTSUNNY   47  30  51 NW22G32   29.66R                  

$$